FW8091 Weather Reports


Display with metric or nautical units.
time (UTC)temp
F
wind
direction
speed
MPH
gust
MPH
rain 1hr
in
rain 24hr
in
rain mn
in
humidity
%
barometer
mb
20260507133011 59 41 9.0 13.0 0.39 0.54 0.54 64 1013.4
20260507131507 59 32 2.0 6.0 0.43 0.54 0.54 65 1013.7
20260507130006 59 37 3.0 19.0 0.43 0.52 0.52 65 1013.9
20260507124503 59 247 5.0 9.0 0.13 0.16 0.16 65 1013.6
20260507123003 59 292 5.0 9.0 0.13 0.14 0.14 63 1013.9
20260507121532 59 210 6.0 11.0 0.11 0.11 0.11 63 1013.9
20260507120031 59 177 5.0 10.0 0.09 0.09 0.09 62 1013.8
20260507114553 63 140 5.0 11.0 0.03 0.03 0.03 62 1014.5
20260507113125 64 75 12.0 21.0 0.01 0.01 0.01 61 1014.4
20260507111550 64 37 14.0 21.0 0.00 0.00 0.00 61 1014.0
20260507110048 64 43 14.0 20.0 0.00 0.00 0.00 61 1014.2
20260507104558 64 32 13.0 22.0 0.00 0.00 0.00 62 1014.1
20260507103047 64 63 12.0 18.0 0.00 0.00 0.00 62 1014.3
20260507101544 64 41 12.0 18.0 0.00 0.00 0.00 63 1014.4
20260507100053 64 33 12.0 19.0 0.00 0.00 0.00 63 1014.3
20260507094540 64 60 12.0 20.0 0.00 0.00 0.00 62 1014.2
20260507093040 64 49 13.0 22.0 0.00 0.00 0.00 62 1014.1
20260507091541 64 54 12.0 21.0 0.00 0.00 0.00 61 1014.3
20260507090034 64 55 12.0 21.0 0.00 0.00 0.00 61 1014.5
20260507084546 64 47 14.0 20.0 0.00 0.00 0.00 62 1014.3
20260507083029 64 46 12.0 20.0 0.00 0.00 0.00 61 1014.2
20260507081524 64 41 14.0 20.0 0.00 0.00 0.00 61 1014.2
20260507080024 64 53 13.0 22.0 0.00 0.00 0.00 60 1014.2
20260507074523 64 60 13.0 21.0 0.00 0.00 0.00 60 1014.2
20260507073024 64 25 14.0 19.0 0.00 0.00 0.00 61 1014.2
20260507071519 64 52 14.0 20.0 0.00 0.00 0.00 61 1014.1
20260507070021 64 37 11.0 19.0 0.00 0.00 0.00 62 1013.8
20260507064516 64 32 12.0 20.0 0.00 0.00 0.00 62 1013.7
20260507063015 64 33 9.0 23.0 0.00 0.00 0.00 63 1013.4
20260507061513 64 33 13.0 20.0 0.00 0.00 0.00 63 1013.4
20260507060010 64 60 10.0 18.0 0.00 0.00 0.00 63 1013.3
20260507054507 64 56 12.0 16.0 0.00 0.00 0.00 62 1013.2
20260507053005 64 38 9.0 18.0 0.00 0.00 0.00 62 1013.3
20260507051501 64 31 10.0 19.0 0.00 0.00 0.00 62 1013.1
20260507050003 64 48 10.0 17.0 0.00 0.00 0.00 62 1013.0
20260507044600 64 14 8.0 15.0 0.00 0.00 0.00 63 1012.8
20260507043058 64 28 10.0 15.0 0.00 0.00 0.00 63 1012.9
20260507041555 64 43 7.0 16.0 0.00 0.00 0.00 63 1013.0
20260507040056 64 53 10.0 17.0 0.00 0.00 0.00 63 1013.1
20260507034550 64 42 11.0 16.0 0.00 0.00 0.00 63 1013.0
20260507033050 64 34 10.0 17.0 0.00 0.00 0.00 62 1012.8
20260507031543 64 70 9.0 14.0 0.00 0.00 0.00 62 1012.9
20260507030042 63 33 7.0 11.0 0.00 0.00 0.00 62 1013.0
20260507024545 63 22 6.0 9.0 0.00 0.00 0.00 62 1013.1
20260507023038 64 21 8.0 13.0 0.00 0.00 0.00 62 1013.3
20260507021515 64 48 8.0 14.0 0.00 0.00 0.00 62 1013.2
20260507020004 64 36 8.0 15.0 0.00 0.00 0.00 61 1013.4
20260507014601 64 41 9.0 13.0 0.00 0.00 0.00 61 1013.5
20260507013034 64 52 6.0 14.0 0.00 0.00 0.00 61 1013.8
20260507011537 64 50 7.0 13.0 0.00 0.00 0.00 62 1013.7
20260507010056 64 57 6.0 13.0 0.00 0.00 0.00 62 1013.7
20260507004554 64 25 7.0 14.0 0.00 0.00 0.00 62 1013.7
20260507003050 64 44 7.0 11.0 0.00 0.00 0.00 61 1013.8
20260507001547 64 43 6.0 12.0 0.00 0.00 0.00 61 1013.7
20260507000046 64 33 8.0 12.0 0.00 0.00 0.00 60 1013.6
20260506234552 65 58 3.0 11.0 0.00 0.00 0.00 60 1014.0
20260506233041 64 40 4.0 10.0 0.00 0.00 0.00 60 1014.1
20260506231540 64 40 4.0 10.0 0.00 0.00 0.00 60 1014.2
20260506230039 64 32 4.0 9.0 0.00 0.00 0.00 60 1014.3
20260506224544 65 47 3.0 8.0 0.00 0.00 0.00 60 1014.4
20260506223037 65 50 5.0 10.0 0.00 0.00 0.00 60 1014.2
20260506221536 65 64 7.0 11.0 0.00 0.00 0.00 60 1014.0
20260506220037 65 62 6.0 12.0 0.00 0.00 0.00 60 1014.3
20260506214535 65 47 4.0 11.0 0.00 0.00 0.00 60 1014.5
20260506213033 65 67 6.0 11.0 0.00 0.00 0.00 60 1014.9
20260506211531 65 73 5.0 11.0 0.00 0.00 0.00 60 1014.8
20260506210035 65 73 7.0 11.0 0.00 0.00 0.00 60 1014.8
20260506204545 65 96 8.0 11.0 0.00 0.00 0.00 60 1014.8
20260506203030 65 120 7.0 11.0 0.00 0.00 0.00 61 1014.5
20260506201530 65 82 4.0 11.0 0.00 0.00 0.00 61 1014.3
20260506200024 65 94 6.0 12.0 0.00 0.00 0.00 61 1014.0
20260506194524 65 97 8.0 11.0 0.00 0.00 0.00 61 1013.9
20260506193020 65 88 6.0 13.0 0.00 0.00 0.00 61 1013.6
20260506191520 65 68 9.0 13.0 0.00 0.00 0.00 61 1013.5
20260506190019 65 93 8.0 12.0 0.00 0.00 0.00 60 1013.5
20260506184519 65 91 9.0 13.0 0.00 0.00 0.00 60 1013.3
20260506183016 65 86 7.0 11.0 0.00 0.00 0.00 60 1013.1
20260506181524 65 102 9.0 14.0 0.00 0.00 0.00 60 1013.0
20260506180016 65 65 7.0 14.0 0.00 0.00 0.00 60 1013.0
20260506174515 65 88 11.0 14.0 0.00 0.00 0.00 60 1013.1
20260506173014 66 95 11.0 13.0 0.00 0.00 0.00 61 1013.0
20260506171522 66 118 10.0 16.0 0.00 0.00 0.00 60 1012.9
20260506170012 66 99 9.0 15.0 0.00 0.00 0.00 60 1012.9
20260506164512 66 85 13.0 19.0 0.00 0.00 0.00 59 1013.0
20260506163010 66 85 13.0 20.0 0.00 0.00 0.00 59 1013.0
20260506161509 66 89 11.0 22.0 0.00 0.00 0.00 60 1013.1
20260506160008 66 83 11.0 21.0 0.00 0.00 0.00 60 1013.0
20260506154508 66 96 13.0 23.0 0.00 0.00 0.00 60 1013.0
20260506153037 66 81 16.0 21.0 0.00 0.00 0.00 59 1012.9
20260506151555 66 97 13.0 19.0 0.00 0.00 0.00 58 1013.1
20260506150035 66 54 13.0 19.0 0.00 0.00 0.00 57 1013.2
20260506144535 66 68 12.0 20.0 0.00 0.00 0.00 56 1013.2
20260506143044 67 56 12.0 17.0 0.00 0.00 0.00 55 1013.2
20260506141534 67 41 12.0 17.0 0.00 0.00 0.00 56 1013.2
20260506140036 66 75 11.0 17.0 0.00 0.00 0.00 56 1013.3
20260506134532 67 73 12.0 17.0 0.00 0.00 0.00 56 1013.4